Location: Sceptre
(50.8619°N, 109.2670°W)
Time: 23:58:50
(UTC+00:00)

Envisat - Pass Details

Date: 28 January 2022
Orbit: 764 x 765 km, 98.2° (Epoch: 22 May)

Event Time Altitude Azimuth Distance (km) Brightness Sun altitude
Rises 01:00:36 0° 226° (SW) 3,222 7.5 -9.6°
Reaches altitude 10° 01:05:12 10° 265° (W) 2,304 7.0 -10.3°
Maximum altitude 01:06:13 11° 277° (W) 2,267 6.6 -10.4°
Drops below altitude 10° 01:07:15 10° 289° (WNW) 2,307 6.4 -10.6°
Sets 01:11:53 0° 328° (NNW) 3,242 6.5 -11.3°
